sat.trackr.live / text

‹ back to catalog

GRAVITAS

NORAD 68495 · 2026-067CH

PAYLOAD ACTIVE UNKNOWN

§ Identity

Operator
Country
US
Launch date
2026-03-30
Launch site
AFWTR
Launch vehicle
Mass (kg)
RCS (m²)

External: N2YO · Heavens-Above · Gunter

§ Orbital elements

Epoch: 2026-05-25T04:00:03.998880Z

Period
98.67 min
Inclination
97.7597°
Eccentricity
0.0004012
Mean motion
14.59474026 rev/d
Perigee alt
692.0 km
Apogee alt
697.7 km
Semi-major
7,073.0 km
B*
5.6557e-3
RAAN
102.7348°
Arg perigee
85.7489°
Mean anomaly
271.6640°
Rev number
567

§ Raw data

GRAVITAS1 68495U 26067CH  26145.16671295  .00026890  00000+0  56557-2 0  99922 68495  97.7597 102.7348 0004012  85.7489 271.6640 14.59474026  5677

JSON: /api/v1/satellites/68495 · /tle

For live sub-satellite position, see the globe view (requires WebGL).

§ Visibility from observer

Set your observer location to see the next 7 days of passes ≥ 10°. The values pass through the URL so the page stays shareable.

No JS? Fill the form by hand. The geolocation button needs JavaScript.